• In Spain
  • List of Countries
  • For 7 days
  • Water Temperature
  • Satellite Maps
  • Weather Map
  • Weather Widgets
  • user-avatar
    Login

    Hourly Weather Karelskoe Zaruche

    Today, 28 May, Monday

    Time Temperature Precipitation Wind Pressure Humidity
    00:00 +9°C° 0 mm 3 mps 754 mmHg 49%
    01:00 +8°C° 0 mm 2 mps 755 mmHg 52%
    02:00 +7°C° 0 mm 2 mps 756 mmHg 54%
    03:00 +7°C° 0 mm 2 mps 756 mmHg 54%
    04:00 +7°C° 0 mm 2 mps 757 mmHg 54%
    05:00 +8°C° 0 mm 2 mps 757 mmHg 54%
    06:00 +9°C° 0 mm 2 mps 758 mmHg 49%
    07:00 +12°C° 0 mm 2 mps 758 mmHg 45%
    08:00 +14°C° 0 mm 2 mps 758 mmHg 40%
    09:00 +15°C° 0 mm 2 mps 758 mmHg 37%
    10:00 +16°C° 0 mm 2 mps 758 mmHg 34%
    11:00 +17°C° 0 mm 2 mps 758 mmHg 31%
    12:00 +18°C° 0 mm 2 mps 758 mmHg 30%
    13:00 +18°C° 0 mm 2 mps 758 mmHg 30%
    14:00 +19°C° 0 mm 2 mps 758 mmHg 29%
    15:00 +19°C° 0 mm 2 mps 758 mmHg 31%
    16:00 +20°C° 0 mm 1 mps 757 mmHg 33%
    17:00 +20°C° 0 mm 1 mps 757 mmHg 35%
    18:00 +18°C° 0 mm 1 mps 757 mmHg 42%
    19:00 +15°C° 0 mm 1 mps 757 mmHg 48%
    20:00 +13°C° 0 mm 1 mps 757 mmHg 55%
    21:00 +12°C° 0 mm 1 mps 757 mmHg 56%
    22:00 +11°C° 0 mm 1 mps 757 mmHg 58%
    23:00 +9°C° 0 mm 2 mps 757 mmHg 59%

    Tomorrow, 29 May, Tuesday

    Time Temperature Precipitation Wind Pressure Humidity
    00:00 +9°C° 0 mm 2 mps 757 mmHg 60%
    01:00 +9°C° 0 mm 2 mps 757 mmHg 62%
    02:00 +8°C° 0 mm 2 mps 757 mmHg 64%
    03:00 +9°C° 0 mm 2 mps 757 mmHg 63%
    04:00 +10°C° 0 mm 2 mps 757 mmHg 62%
    05:00 +10°C° 0 mm 3 mps 757 mmHg 62%
    06:00 +12°C° 0 mm 3 mps 756 mmHg 56%
    07:00 +16°C° 0 mm 3 mps 756 mmHg 51%
    08:00 +18°C° 0 mm 3 mps 756 mmHg 46%
    09:00 +19°C° 0 mm 3 mps 755 mmHg 42%
    10:00 +20°C° 0 mm 4 mps 755 mmHg 39%
    11:00 +22°C° 0 mm 4 mps 754 mmHg 36%
    12:00 +22°C° 0 mm 4 mps 753 mmHg 35%
    13:00 +23°C° 0 mm 4 mps 753 mmHg 35%
    14:00 +23°C° 0 mm 4 mps 752 mmHg 34%
    15:00 +23°C° 0 mm 4 mps 751 mmHg 37%
    16:00 +24°C° 0 mm 3 mps 750 mmHg 40%
    17:00 +24°C° 0 mm 3 mps 749 mmHg 43%
    18:00 +21°C° 0 mm 3 mps 749 mmHg 52%
    19:00 +19°C° 0 mm 3 mps 748 mmHg 61%
    20:00 +17°C° 0 mm 2 mps 748 mmHg 69%
    21:00 +16°C° 0 mm 3 mps 747 mmHg 73%
    22:00 +16°C° 0 mm 3 mps 747 mmHg 76%
    23:00 +14°C° 0 mm 3 mps 746 mmHg 80%

    Day after tomorrow, 30 May, Wednesday

    Time Temperature Precipitation Wind Pressure Humidity
    00:00 +14°C° 0 mm 3 mps 746 mmHg 80%
    01:00 +13°C° 0 mm 3 mps 746 mmHg 81%
    02:00 +13°C° 0 mm 3 mps 745 mmHg 82%
    03:00 +13°C° 0 mm 4 mps 745 mmHg 77%
    04:00 +14°C° 0 mm 4 mps 744 mmHg 73%
    05:00 +14°C° 0 mm 4 mps 744 mmHg 69%
    06:00 +16°C° 0 mm 5 mps 743 mmHg 63%
    07:00 +19°C° 0 mm 5 mps 743 mmHg 56%
    08:00 +20°C° 0 mm 5 mps 742 mmHg 50%
    09:00 +22°C° 0 mm 6 mps 742 mmHg 46%
    10:00 +23°C° 0 mm 6 mps 741 mmHg 43%
    11:00 +24°C° 0 mm 7 mps 741 mmHg 40%
    12:00 +24°C° 0 mm 7 mps 740 mmHg 39%
    13:00 +24°C° 0 mm 7 mps 740 mmHg 38%
    14:00 +26°C° 0 mm 7 mps 740 mmHg 36%
    15:00 +23°C° 0 mm 6 mps 740 mmHg 39%
    16:00 +22°C° 0 mm 5 mps 740 mmHg 41%
    17:00 +20°C° 0 mm 4 mps 740 mmHg 43%
    18:00 +18°C° 0 mm 4 mps 740 mmHg 47%
    19:00 +16°C° 0 mm 3 mps 741 mmHg 51%
    20:00 +13°C° 0 mm 3 mps 741 mmHg 55%
    21:00 +12°C° 0 mm 3 mps 741 mmHg 59%
    22:00 +10°C° 0 mm 2 mps 742 mmHg 63%
    23:00 +9°C° 0 mm 2 mps 742 mmHg 67%

    31 May, Thursday

    Time Temperature Precipitation Wind Pressure Humidity
    00:00 +9°C° 0 mm 3 mps 743 mmHg 69%
    01:00 +8°C° 0 mm 3 mps 743 mmHg 71%
    02:00 +8°C° 0 mm 3 mps 744 mmHg 73%
    03:00 +8°C° 0 mm 3 mps 744 mmHg 69%
    04:00 +6°C° 0 mm 4 mps 745 mmHg 64%
    05:00 +6°C° 0 mm 4 mps 745 mmHg 59%
    06:00 +7°C° 0 mm 4 mps 746 mmHg 55%
    07:00 +8°C° 0 mm 4 mps 746 mmHg 50%
    08:00 +8°C° 0 mm 4 mps 747 mmHg 46%
    09:00 +10°C° 0 mm 4 mps 747 mmHg 43%
    10:00 +11°C° 0 mm 4 mps 747 mmHg 39%
    11:00 +12°C° 0 mm 4 mps 747 mmHg 36%
    12:00 +12°C° 0 mm 4 mps 748 mmHg 35%
    13:00 +13°C° 0 mm 4 mps 748 mmHg 33%
    14:00 +13°C° 0 mm 4 mps 748 mmHg 32%
    15:00 +13°C° 0 mm 4 mps 748 mmHg 33%
    16:00 +13°C° 0 mm 4 mps 748 mmHg 34%
    17:00 +12°C° 0 mm 4 mps 748 mmHg 35%
    18:00 +11°C° 0 mm 3 mps 749 mmHg 41%
    19:00 +9°C° 0 mm 3 mps 749 mmHg 48%
    20:00 +7°C° 0 mm 2 mps 749 mmHg 54%
    21:00 +6°C° 0 mm 2 mps 750 mmHg 55%
    22:00 +5°C° 0 mm 2 mps 750 mmHg 57%
    23:00 +3°C° 0 mm 3 mps 751 mmHg 58%

    1 June, Friday

    Time Temperature Precipitation Wind Pressure Humidity
    00:00 +4°C° 0 mm 2 mps 751 mmHg 61%
    01:00 +3°C° 0 mm 2 mps 751 mmHg 64%
    02:00 +2°C° 0 mm 2 mps 752 mmHg 66%
    03:00 +3°C° 0 mm 2 mps 752 mmHg 65%
    04:00 +2°C° 0 mm 3 mps 752 mmHg 63%
    05:00 +3°C° 0 mm 3 mps 753 mmHg 61%
    06:00 +4°C° 0 mm 3 mps 753 mmHg 56%
    07:00 +5°C° 0 mm 3 mps 753 mmHg 51%
    08:00 +8°C° 0 mm 3 mps 753 mmHg 46%
    09:00 +9°C° 0 mm 3 mps 753 mmHg 43%
    10:00 +10°C° 0 mm 3 mps 753 mmHg 40%
    11:00 +11°C° 0 mm 3 mps 753 mmHg 38%
    12:00 +12°C° 0 mm 3 mps 753 mmHg 36%
    13:00 +13°C° 0 mm 3 mps 753 mmHg 34%
    14:00 +14°C° 0 mm 3 mps 753 mmHg 33%
    15:00 +14°C° 0 mm 2 mps 752 mmHg 33%
    16:00 +14°C° 0 mm 2 mps 752 mmHg 34%
    17:00 +14°C° 0 mm 2 mps 752 mmHg 34%
    18:00 +12°C° 0 mm 1 mps 752 mmHg 42%
    19:00 +10°C° 0 mm 1 mps 752 mmHg 50%
    20:00 +7°C° 0 mm 0 mps 753 mmHg 58%
    21:00 +6°C° 0 mm 0 mps 753 mmHg 59%
    22:00 +7°C° 0 mm 1 mps 753 mmHg 61%
    23:00 +6°C° 0 mm 1 mps 753 mmHg 63%

    2 June, Saturday

    Time Temperature Precipitation Wind Pressure Humidity
    00:00 +5°C° 0 mm 1 mps 754 mmHg 64%
    01:00 +5°C° 0 mm 1 mps 754 mmHg 66%
    02:00 +5°C° 0 mm 1 mps 754 mmHg 68%
    03:00 +6°C° 0 mm 1 mps 754 mmHg 66%
    04:00 +7°C° 0 mm 1 mps 754 mmHg 64%
    05:00 +8°C° 0 mm 1 mps 754 mmHg 62%
    06:00 +10°C° 0 mm 1 mps 754 mmHg 55%
    07:00 +12°C° 0 mm 1 mps 754 mmHg 48%
    08:00 +15°C° 0 mm 1 mps 754 mmHg 42%
    09:00 +16°C° 0 mm 1 mps 754 mmHg 39%
    10:00 +18°C° 0 mm 1 mps 753 mmHg 35%
    11:00 +19°C° 0 mm 2 mps 753 mmHg 32%
    12:00 +19°C° 0 mm 2 mps 753 mmHg 32%
    13:00 +20°C° 0 mm 2 mps 752 mmHg 32%
    14:00 +20°C° 0 mm 2 mps 752 mmHg 31%
    15:00 +20°C° 0 mm 2 mps 751 mmHg 34%
    16:00 +20°C° 0 mm 2 mps 751 mmHg 36%
    17:00 +20°C° 0 mm 2 mps 750 mmHg 38%
    18:00 +18°C° 0 mm 2 mps 750 mmHg 46%
    19:00 +16°C° 0 mm 2 mps 750 mmHg 54%
    20:00 +14°C° 0 mm 2 mps 750 mmHg 62%
    21:00 +13°C° 0 mm 2 mps 749 mmHg 64%
    22:00 +12°C° 0 mm 2 mps 749 mmHg 65%
    23:00 +10°C° 0 mm 2 mps 749 mmHg 67%
    Show more